Nome, AK

11:54 AM AKDT on July 24, 2016 (GMT -0800)
Nome

Weather History for PAOM - June, 2012

Change the Weather History Date:

Thursday, June 21, 2012

  Actual Average Record
Temperature  
Mean Temperature 41 °F 50 °F  
Max Temperature 42 °F 57 °F 77 °F (1987)
Min Temperature 39 °F 43 °F 30 °F (1949)
Degree Days  
Heating Degree Days 24 15  
Month to date heating degree days 354 387  
Since 1 June heating degree days 354 387  
Since 1 July heating degree days 15061 13575  
Cooling Degree Days 0    
Month to date cooling degree days 0  
Year to date cooling degree days 0  
Since 1 June cooling degree days 0  
Moisture  
Dew Point 40 °F    
Average Humidity 0    
Maximum Humidity 0    
Minimum Humidity 0    
Precipitation  
Precipitation 0.01 in 0.03 in 0.94 in (1978)
Month to date precipitation 0.01 0.63  
Year to date precipitation 2.79 4.77  
Snow  
Snow 0.00 in 0.00 in T in (1965)
Month to date snowfall 0.0 0.3  
Since 1 June snowfall 0.0 0.3  
Since 1 July snowfall 80.6 75.7  
Snow Depth 0.00 in    
Sea Level Pressure  
Sea Level Pressure 30.18 in    
Wind  
Wind Speed 9 mph (SSW)    
Max Wind Speed 17 mph    
Max Gust Speed 20 mph    
Visibility 6 miles    
Events Fog , Rain    
T = Trace of Precipitation, MM = Missing Value Source: NWS Daily Summary

Daily Weather History Graph

Daily Weather History Graph

Search for Another Location

Airport or City:

Trip Planner

Search our weather history database for the weather conditions in past years. The results will help you decide how hot, cold, wet, or windy it might be!

Date:

Astronomy

Jun. 21, 2012 Rise Set
Actual Time 4:19 AM AKDT 1:48 AM AKDT
Civil Twilight Sun does not set Sun does not set
Nautical Twilight Sun does not set Sun does not set
Astronomical Twilight Sun does not set Sun does not set
Moon 7:56 AM AKDT (6/21) 1:20 AM AKDT (6/21)
Length of Visible Light 24h 00m
Length of Day
21h 28m
Waxing Crescent, 5% of the Moon is Illuminated
Jun 21
Waxing Crescent
Jun 26
First Quarter
Jul 3
Full
Jul 10
Last Quarter
Jul 18
New

Hourly Weather History & Observations

Time (AKDT) Temp. Windchill Dew Point Humidity Pressure Visibility Wind Dir Wind Speed Gust Speed Precip Events Conditions
12:53 AM 41.0 °F 34.7 °F 37.0 °F 86% 30.21 in 10.0 mi WSW 10.4 mph - N/A   Overcast
1:15 AM 39.2 °F 33.0 °F 39.2 °F 100% 30.21 in 9.0 mi WSW 9.2 mph - N/A   Overcast
1:53 AM 41.0 °F 33.9 °F 36.0 °F 82% 30.21 in 10.0 mi WSW 12.7 mph - N/A   Overcast
2:53 AM 41.0 °F 33.5 °F 36.0 °F 82% 30.21 in 10.0 mi WSW 13.8 mph - N/A   Overcast
3:53 AM 39.9 °F 32.9 °F 37.0 °F 89% 30.21 in 10.0 mi WSW 11.5 mph - N/A   Overcast
4:30 AM 39.2 °F 32.5 °F 39.2 °F 100% 30.20 in 9.0 mi WSW 10.4 mph - 0.00 in Rain Light Rain
4:50 AM 39.2 °F 30.8 °F 37.4 °F 93% 30.20 in 10.0 mi WSW 15.0 mph - 0.00 in   Overcast
4:53 AM 39.9 °F 32.9 °F 37.9 °F 93% 30.21 in 9.0 mi WSW 11.5 mph - 0.00 in   Overcast
5:00 AM 39.2 °F 32.5 °F 37.4 °F 93% 30.20 in 9.0 mi WSW 10.4 mph - N/A   Overcast
5:53 AM 39.9 °F 33.4 °F 37.9 °F 93% 30.20 in 6.0 mi WSW 10.4 mph - N/A   Overcast
6:13 AM 39.2 °F 32.5 °F 39.2 °F 100% 30.20 in 7.0 mi WSW 10.4 mph - 0.00 in   Light Drizzle
6:44 AM 39.2 °F 32.5 °F 39.2 °F 100% 30.19 in 5.0 mi West 10.4 mph - 0.01 in   Light Drizzle
6:53 AM 39.0 °F 32.8 °F 39.0 °F 100% 30.19 in 5.0 mi West 9.2 mph - 0.01 in   Light Drizzle
7:53 AM 39.9 °F 35.1 °F 39.0 °F 97% 30.19 in 5.0 mi West 6.9 mph - 0.00 in   Overcast
8:53 AM 39.9 °F 32.5 °F 39.0 °F 97% 30.19 in 5.0 mi WSW 12.7 mph - 0.00 in Rain Light Rain
9:53 AM 39.9 °F 33.9 °F 37.9 °F 93% 30.19 in 10.0 mi WSW 9.2 mph - 0.00 in   Overcast
10:53 AM 39.9 °F 34.5 °F 37.9 °F 93% 30.19 in 10.0 mi SSW 8.1 mph - N/A   Overcast
11:37 AM 39.2 °F 35.0 °F 39.2 °F 100% 30.20 in 6.0 mi South 5.8 mph - N/A   Overcast
11:53 AM 39.0 °F 34.0 °F 39.0 °F 100% 30.20 in 2.5 mi SSW 6.9 mph - N/A   Overcast
12:12 PM 39.2 °F 35.9 °F 39.2 °F 100% 30.20 in 1.5 mi South 4.6 mph - N/A   Overcast
12:53 PM 39.9 °F 37.8 °F 39.9 °F 100% 30.20 in 1.2 mi SSE 3.5 mph - N/A   Overcast
1:01 PM 41.0 °F 37.1 °F 41.0 °F 100% 30.20 in 1.2 mi SSW 5.8 mph - N/A   Overcast
1:40 PM 41.0 °F 37.1 °F 41.0 °F 100% 30.20 in 3.0 mi WSW 5.8 mph - N/A   Overcast
1:53 PM 41.0 °F 38.0 °F 41.0 °F 100% 30.20 in 8.0 mi SW 4.6 mph - N/A   Overcast
2:00 PM 41.0 °F 38.0 °F 41.0 °F 100% 30.19 in 10.0 mi SSW 4.6 mph - N/A   Overcast
2:53 PM 41.0 °F 39.0 °F 41.0 °F 100% 30.19 in 2.0 mi SSW 3.5 mph - N/A   Overcast
2:58 PM 41.0 °F 38.0 °F 41.0 °F 100% 30.19 in 1.0 mi SSW 4.6 mph - N/A   Overcast
3:05 PM 41.0 °F 37.1 °F 41.0 °F 100% 30.19 in 0.8 mi SSW 5.8 mph - N/A   Overcast
3:15 PM 42.8 °F 40.1 °F 42.8 °F 100% 30.19 in 0.2 mi SSW 4.6 mph - N/A Fog Fog
3:41 PM 42.8 °F 38.6 °F 42.8 °F 100% 30.19 in 1.0 mi SSW 6.9 mph - N/A   Overcast
3:48 PM 42.8 °F 38.6 °F 42.8 °F 100% 30.19 in 0.8 mi SSW 6.9 mph - N/A   Overcast
3:53 PM 42.1 °F 37.7 °F 42.1 °F 100% 30.19 in 0.8 mi SSW 6.9 mph - N/A   Overcast
4:41 PM 42.8 °F 38.0 °F 42.8 °F 100% 30.18 in 0.5 mi South 8.1 mph - N/A Fog Fog
4:53 PM 42.1 °F 37.7 °F 42.1 °F 100% 30.19 in 0.8 mi South 6.9 mph - N/A   Overcast
5:10 PM 42.8 °F 38.6 °F 42.8 °F 100% 30.18 in 1.0 mi South 6.9 mph - N/A   Overcast
5:29 PM 41.0 °F 35.8 °F 41.0 °F 100% 30.18 in 3.0 mi SSW 8.1 mph - N/A   Overcast
5:35 PM 41.0 °F 35.2 °F 41.0 °F 100% 30.18 in 1.8 mi South 9.2 mph - N/A   Overcast
5:53 PM 41.0 °F 35.8 °F 41.0 °F 100% 30.17 in 1.2 mi South 8.1 mph - N/A   Overcast
6:01 PM 41.0 °F 36.4 °F 41.0 °F 100% 30.17 in 3.0 mi South 6.9 mph - N/A   Overcast
6:22 PM 42.8 °F 39.3 °F 39.2 °F 87% 30.17 in 10.0 mi SSW 5.8 mph - N/A   Overcast
6:53 PM 42.1 °F 39.2 °F 39.9 °F 92% 30.17 in 10.0 mi SSW 4.6 mph - N/A   Overcast
7:16 PM 42.8 °F 40.1 °F 39.2 °F 87% 30.16 in 10.0 mi SSW 4.6 mph - N/A   Overcast
7:53 PM 42.1 °F 39.2 °F 39.9 °F 92% 30.16 in 10.0 mi SSE 4.6 mph - N/A   Overcast
8:53 PM 41.0 °F 39.0 °F 39.0 °F 93% 30.14 in 10.0 mi SE 3.5 mph - N/A   Overcast
9:30 PM 41.0 °F 38.0 °F 39.2 °F 93% 30.14 in 10.0 mi South 4.6 mph - N/A   Overcast
9:53 PM 41.0 °F 36.4 °F 39.9 °F 96% 30.14 in 8.0 mi South 6.9 mph - N/A   Overcast
10:01 PM 41.0 °F 37.1 °F 39.2 °F 93% 30.13 in 9.0 mi South 5.8 mph - N/A   Overcast
10:53 PM 41.0 °F 38.0 °F 39.0 °F 93% 30.13 in 10.0 mi South 4.6 mph - N/A   Overcast
11:00 PM 39.2 °F 35.9 °F 39.2 °F 100% 30.13 in 9.0 mi South 4.6 mph - 0.00 in Rain Light Rain
11:13 PM 41.0 °F 37.1 °F 39.2 °F 93% 30.13 in 10.0 mi South 5.8 mph - 0.00 in   Overcast
11:18 PM 39.2 °F 34.2 °F 39.2 °F 100% 30.13 in 9.0 mi South 6.9 mph - 0.00 in   Overcast
11:30 PM 39.2 °F 35.9 °F 39.2 °F 100% 30.12 in 8.0 mi South 4.6 mph - 0.00 in   Overcast
11:37 PM 39.2 °F 35.9 °F 39.2 °F 100% 30.12 in 8.0 mi South 4.6 mph - 0.00 in   Overcast
11:53 PM 39.9 °F 37.8 °F 39.0 °F 97% 30.12 in 10.0 mi South 3.5 mph - 0.00 in   Overcast